Flag for U.S.A. Weather past 2 weeks in Bowling Green, Kentucky, U.S.A.

Now
33 °F

Sunny.


Feels Like: 26 °F
Forecast: 27 / 46 °F
Wind: 8 mph from Southeast

Location: Glasgow Municipal Airport

Current Time: Jan 28, 2015 at 11:11:21 AM

Latest Report: Jan 28, 2015 at 10:15 AM


Visibility: 10 mi

Pressure: 30.36 "Hg

Humidity: 44%

Dew point: 13 °F

Location of Bowling GreenLocation

Historic Weather in Bowling Green — Graph

°F

Bowling Green temperature yesterday

Maximum temperature yesterday: 33 °F (at 1:15 PM)
Minimum temperature yesterday: 30 °F (at 12:15 AM)
Average temperature yesterday: 32 °F

Past Weeks' High & Low Weather Summary

 TemperatureHumidityPressure
High60 °F (Jan 19, 2:35 PM)100% (Jan 15, 6:55 PM)30.49 "Hg (Jan 15, 6:55 PM)
Low21 °F (Jan 28, 6:15 AM)29% (Jan 19, 2:55 PM)29.60 "Hg (Jan 25, 2:55 PM)
Average36 °F78%30.08 "Hg
* Reported Jan 13 9:15 AM — Jan 28 9:55 AM, Bowling Green, Weather by CustomWeather, © 2014

Note: Actual official high and low records may vary slightly from our data, if they occured in-between our weather recording intervals... More about our weather records

Advertising

Bowling Green weather history for previous 24 hours

 ConditionsComfort  
Time TempWeatherWind HumidityBarometerVisibility
9:55 AM
Jan 28
32 °FSunny.8 mph47%30.36 "Hg10 mi
9:35 AM31 °FSunny.7 mph56%30.36 "Hg10 mi
9:15 AM30 °FSunny.8 mph61%30.36 "Hg10 mi
8:55 AM29 °FSunny.8 mph66%30.36 "Hg10 mi
8:35 AM28 °FSunny.9 mph69%30.36 "Hg10 mi
8:15 AM26 °FSunny.9 mph73%30.35 "Hg10 mi
7:55 AM25 °FSunny.5 mph75%30.36 "Hg10 mi
7:35 AM24 °FSunny.6 mph79%30.36 "Hg10 mi
7:15 AM23 °FSunny.3 mph79%30.36 "Hg10 mi
6:55 AM21 °FSunny.5 mph81%30.34 "Hg10 mi
6:35 AM22 °FSunny.5 mph82%30.34 "Hg10 mi
6:15 AM21 °FSunny.No wind84%30.33 "Hg10 mi
5:55 AM22 °FSunny.No wind79%30.33 "Hg10 mi
5:35 AM22 °FClear.No wind78%30.32 "Hg10 mi
5:15 AM23 °FClear.No wind79%30.32 "Hg10 mi
4:55 AM22 °FClear.No wind81%30.31 "Hg10 mi
4:35 AM22 °FClear.No wind78%30.31 "Hg10 mi
4:15 AM23 °FClear.No wind75%30.30 "Hg10 mi
3:55 AM23 °FClear.No wind76%30.28 "Hg10 mi
3:35 AM25 °FClear.No wind72%30.28 "Hg10 mi
3:15 AM25 °FClear.5 mph71%30.27 "Hg10 mi
2:55 AM26 °FClear.5 mph71%30.27 "Hg10 mi
2:35 AM26 °FClear.3 mph72%30.27 "Hg10 mi
2:15 AM26 °FClear.No wind71%30.27 "Hg10 mi
1:55 AM27 °FClear.3 mph70%30.27 "Hg10 mi
1:35 AM27 °FPassing clouds.3 mph69%30.27 "Hg10 mi
1:15 AM28 °FPassing clouds.No wind70%30.26 "Hg10 mi
12:55 AM29 °FPassing clouds.5 mph67%30.25 "Hg10 mi
12:15 AM30 °FOvercast.8 mph70%30.24 "Hg10 mi
11:55 PM
Jan 27
31 °FOvercast.5 mph75%30.24 "Hg10 mi
11:15 PM32 °FOvercast.8 mph81%30.23 "Hg10 mi
10:55 PM32 °FOvercast.3 mph83%30.23 "Hg10 mi
10:35 PM32 °FOvercast.No wind86%30.23 "Hg7 mi
10:15 PM32 °FOvercast.3 mph86%30.22 "Hg7 mi
9:55 PM32 °FOvercast.6 mph87%30.23 "Hg7 mi
9:15 PM32 °FOvercast.6 mph87%30.22 "Hg7 mi
8:55 PM32 °FMostly cloudy.6 mph87%30.22 "Hg7 mi
8:35 PM32 °FOvercast.6 mph87%30.21 "Hg10 mi
8:15 PM32 °FMostly cloudy.5 mph87%30.21 "Hg10 mi
7:55 PM32 °FMostly cloudy.6 mph87%30.21 "Hg10 mi
7:35 PM32 °FMostly cloudy.6 mph88%30.20 "Hg10 mi
7:15 PM32 °FMostly cloudy.5 mph88%30.20 "Hg10 mi
6:55 PM32 °FOvercast.6 mph88%30.18 "Hg10 mi
6:15 PM32 °FOvercast.5 mph87%30.18 "Hg10 mi
5:55 PM32 °FOvercast.6 mph87%30.18 "Hg10 mi
5:35 PM32 °FOvercast.6 mph88%30.17 "Hg10 mi
5:15 PM33 °FOvercast.5 mph86%30.16 "Hg10 mi
4:55 PM33 °FOvercast.7 mph86%30.15 "Hg10 mi
4:35 PM33 °FOvercast.7 mph85%30.15 "Hg10 mi
4:15 PM33 °FOvercast.5 mph86%30.14 "Hg10 mi
3:55 PM33 °FOvercast.6 mph87%30.13 "Hg10 mi
3:15 PM33 °FOvercast.6 mph86%30.12 "Hg10 mi
2:55 PM33 °FMostly cloudy.6 mph87%30.11 "Hg10 mi
2:35 PM33 °FMostly cloudy.6 mph86%30.10 "Hg10 mi
2:15 PM33 °FOvercast.7 mph86%30.09 "Hg10 mi
1:55 PM33 °FOvercast.7 mph86%30.08 "Hg10 mi
1:35 PM33 °FOvercast.5 mph87%30.08 "Hg10 mi
1:15 PM33 °FMostly cloudy.5 mph87%30.08 "Hg10 mi
12:55 PM33 °FMostly cloudy.No wind85%30.07 "Hg10 mi
12:35 PM33 °FOvercast.No wind87%30.08 "Hg10 mi
12:15 PM33 °FOvercast.3 mph87%30.07 "Hg10 mi
11:55 AM33 °FOvercast.5 mph88%30.07 "Hg10 mi
11:35 AM33 °FOvercast.3 mph89%30.07 "Hg10 mi
11:15 AM33 °FMostly cloudy.5 mph90%30.07 "Hg10 mi
Weather by CustomWeather, © 2014

See weather overviewHow to use our weather pages